TimeEDT,TemperatureF,Dew PointF,Humidity,Sea Level PressureIn,VisibilityMPH,Wind Direction,Wind SpeedMPH,Gust SpeedMPH,PrecipitationIn,Events,Conditions,WindDirDegrees,DateUTC
12:00 AM,51.8,46.4,82,30.18,9.0,SSE,3.5,-,N/A,,Overcast,150,2013-05-18 04:00:00
1:00 AM,53.6,42.8,67,30.18,9.0,ESE,4.6,-,N/A,,Overcast,120,2013-05-18 05:00:00
2:00 AM,35,34,92,30.25,,NNE,2.3,,,,,20,2013-05-18 06:00:00
2:00 AM,55.4,42.8,63,30.16,9.0,SSE,5.8,-,N/A,,Overcast,150,2013-05-18 06:00:00
3:00 AM,57.2,44.6,63,30.16,9.0,ENE,5.8,-,N/A,,Overcast,70,2013-05-18 07:00:00
4:00 AM,55.4,44.6,67,30.15,9.0,ESE,4.6,-,N/A,,Overcast,110,2013-05-18 08:00:00
5:00 AM,51.8,46.4,82,30.16,9.0,NNE,8.1,-,N/A,,Overcast,30,2013-05-18 09:00:00
6:00 AM,50.0,44.6,82,30.19,9.0,NNE,8.1,-,N/A,,Overcast,30,2013-05-18 10:00:00
7:00 AM,50.0,44.6,82,30.21,9.0,NE,9.2,-,N/A,,Overcast,40,2013-05-18 11:00:00
8:00 AM,37,35,91,30.37,,NE,3.5,,,,,50,2013-05-18 12:00:00
8:00 AM,53.6,44.6,72,30.20,9.0,ENE,8.1,-,N/A,,Overcast,60,2013-05-18 12:00:00
9:00 AM,57.2,44.6,63,30.19,9.0,ENE,3.5,-,N/A,,Overcast,60,2013-05-18 13:00:00
10:00 AM,59.0,44.6,59,30.19,9.0,East,5.8,-,N/A,,Overcast,100,2013-05-18 14:00:00
11:00 AM,60.8,44.6,55,30.19,9.0,ESE,8.1,-,N/A,,Mostly Cloudy,110,2013-05-18 15:00:00
12:00 PM,64.4,46.4,52,30.17,9.0,East,8.1,-,N/A,,Mostly Cloudy,100,2013-05-18 16:00:00
1:00 PM,69.8,46.4,43,30.16,9.0,East,9.2,-,N/A,,Mostly Cloudy,100,2013-05-18 17:00:00
2:00 PM,44,32,52,30.38,,North,2.3,,,,,0,2013-05-18 18:00:00
2:00 PM,71.6,42.8,35,30.14,9.0,East,9.2,-,N/A,,Mostly Cloudy,100,2013-05-18 18:00:00
3:00 PM,73.4,44.6,36,30.12,9.0,SE,8.1,-,N/A,,Mostly Cloudy,130,2013-05-18 19:00:00
4:00 PM,75.2,46.4,36,30.11,9.0,ESE,12.7,-,N/A,,Clear,120,2013-05-18 20:00:00
5:00 PM,75.2,44.6,34,30.09,9.0,East,11.5,-,N/A,,Clear,100,2013-05-18 21:00:00
6:00 PM,75.2,44.6,34,30.09,9.0,ESE,12.7,-,N/A,,Clear,120,2013-05-18 22:00:00
7:00 PM,73.4,44.6,36,30.08,9.0,East,11.5,-,N/A,,Clear,100,2013-05-18 23:00:00
8:00 PM,37,31,73,30.42,,SSE,3.5,,,,,160,2013-05-19 00:00:00
8:00 PM,69.8,46.4,43,30.09,9.0,ESE,8.1,-,N/A,,Mostly Cloudy,120,2013-05-19 00:00:00
9:00 PM,64.4,46.4,52,30.08,9.0,East,6.9,-,N/A,,Clear,100,2013-05-19 01:00:00
10:00 PM,62.6,46.4,55,30.09,9.0,ESE,8.1,-,N/A,,Clear,110,2013-05-19 02:00:00
11:00 PM,59.0,44.6,59,30.08,9.0,ESE,6.9,-,N/A,,Clear,120,2013-05-19 03:00:00